Location: ????????
(38.4362°N, 22.8767°E)
Time: 12:59:09
(UTC+00:00)

Cosmos 1633 Rocket - Pass Details

Date: 23 April 2024
Orbit: 604 x 619 km, 82.5° (Epoch: 17 May)

Event Time Altitude Azimuth Distance (km) Brightness Sun altitude
Rises 01:11:51 0° 353° (N) 2,874 7.0 -26.0°
Reaches altitude 10° 01:14:05 10° 354° (N) 1,968 6.1 -25.7°
Enters shadow 01:18:04 74° 11° (N) 639 3.1 -25.1°
